Location: Newark
(30.1000°N, 109.4667°E)
Time: 01:11:05
(UTC+00:00)

Vanguard 1 Rocket - Pass Details

Date: 25 February 2020
Orbit: 650 x 4226 km, 34.3° (Epoch: 28 March)

Event Time Altitude Azimuth Distance (km) Brightness Sun altitude
Exits shadow 20:44:24 38° 58° (ENE) 1,109 8.1 -32.7°
Drops below altitude 10° 20:47:15 10° 80° (E) 2,085 10.1 -32.1°
Sets 20:49:21 0° 85° (E) 2,951 11.2 -31.7°
